Home > Weather > Kawartha Lakes > Past weeks

Flag for Canada Past Weather in Kawartha Lakes, Ontario, Canada — Yesterday and Last 2 Weeks

Now
68 °F

Mild.


Feels Like: 68 °F
Forecast: 56 / 82 °F
Wind: 1 mph from South

Location: Lagoon City

Current Time: Aug 27, 2016 at 9:49:24 AM

Latest Report: Aug 27, 2016 at 9:00 AM


Visibility: N/A

Pressure: 30.22 "Hg

Humidity: 78%

Dew Point: 61 °F

Location of Kawartha LakesLocation

Past Weather in Kawartha Lakes — Graph

°F

Kawartha Lakes Temperature Yesterday

Maximum temperature yesterday: 77 °F (at 3:00 PM)
Minimum temperature yesterday: 66 °F (at 11:00 PM)
Average temperature yesterday: 71 °F

High & Low Weather Summary for the Past Weeks

 TemperatureHumidityPressure
High84 °F (Aug 12, 4:00 PM)96% (Aug 17, 9:00 AM)30.22 "Hg (Aug 17, 9:00 AM)
Low52 °F (Aug 22, 6:00 AM)42% (Aug 22, 5:00 PM)29.53 "Hg (Aug 21, 5:00 AM)
Average71 °F76%29.97 "Hg
* Reported Aug 12 8:00 AM — Aug 27 8:00 AM, Kawartha Lakes, Weather by CustomWeather, © 2016

Note: Actual official high and low records may vary slightly from our data, if they occured in-between our weather recording intervals... More about our weather records

Advertising

Kawartha Lakes Weather History for the Previous 24 Hours

Scroll right to see more
 ConditionsComfort  
Time TempWeatherWind HumidityBarometerVisibility
8:00 AM
Sat, Aug 27
64 °FMild.2 mph89%30.22 "HgN/A
7:00 AM60 °FCool.3 mph94%30.21 "HgN/A
6:00 AM59 °FCool.3 mph92%30.19 "HgN/A
5:00 AM61 °FCool.3 mph92%30.19 "HgN/A
4:00 AM63 °FMild.2 mph87%30.17 "HgN/A
3:00 AM63 °FMild.1 mph87%30.16 "HgN/A
2:00 AM64 °FMild.1 mph84%30.16 "HgN/A
1:00 AM64 °FMild.1 mph82%30.16 "HgN/A
12:00 AM66 °FMild.2 mph77%30.15 "HgN/A
11:00 PM
Fri, Aug 26
66 °FMild.3 mph79%30.14 "HgN/A
10:00 PM68 °FMild.8 mph76%30.13 "HgN/A
9:00 PM69 °FMild.9 mph71%30.12 "HgN/A
8:00 PM71 °FMild.12 mph65%30.10 "HgN/A
7:00 PM74 °FMild.13 mph60%30.08 "HgN/A
6:00 PM76 °FMild.12 mph60%30.08 "HgN/A
5:00 PM76 °FMild.9 mph62%30.07 "HgN/A
4:00 PM77 °FMild.13 mph56%30.06 "HgN/A
3:00 PM77 °FMild.16 mph57%30.06 "HgN/A
2:00 PM77 °FMild.15 mph52%30.06 "HgN/A
1:00 PM74 °FMild.9 mph68%30.07 "HgN/A
12:00 PM72 °FMild.9 mph71%30.07 "HgN/A
11:00 AM69 °FMild.6 mph80%30.07 "HgN/A
10:00 AM70 °FMild.7 mph77%30.06 "HgN/A
9:00 AM69 °FMild.8 mph80%30.05 "HgN/A
Weather by CustomWeather, © 2016

See weather overviewHow to use our weather pages